Location: Schommer Observatory
(40.5200°N, 74.4500°W)
Time: 09:44:23
(UTC-05:00)

Tiangong 1 - Pass Details

Date: 10 November 2017
Orbit: 283 x 307 km, 42.8° (Epoch: 24 November)

Event Time Altitude Azimuth Distance (km) Brightness Sun altitude
Exits shadow 04:32:20 15° 82° (E) 898 3.8 -24.2°
Drops below altitude 10° 04:32:56 10° 86° (E) 1,140 4.5 -24.0°
Sets 04:34:55 0° 91° (E) 1,965 6.1 -23.7°
